Total_Precipitation_Accumulation
0.02 0.07 0.27 0.48 0.87 1.64 1.58 0.99 0.49 0.28 0.25 0.31 0.38 0.43 0.44 0.40 0.54 0.93 0.45 0.20 0.09 0.05 0.05 0.11 0.16 0.15 0.15 0.19 0.21 0.24 0.28 0.29 0.29 0.32 0.36 0.39 0.33 0.27 0.26 0.28 0.28 0.28 0.30 0.27 0.26 0.25 0.24 0.27 0.26
0.03 0.12 0.32 0.53 1.23 1.78 1.30 1.12 0.42 0.23 0.21 0.31 0.37 0.41 0.41 0.40 0.25 0.28 0.30 0.24 0.13 0.08 0.05 0.05 0.12 0.15 0.14 0.18 0.22 0.27 0.32 0.32 0.30 0.36 0.35 0.30 0.24 0.24 0.23 0.25 0.27 0.28 0.26 0.23 0.22 0.21 0.20 0.21 0.22
0.06 0.17 0.37 0.54 0.95 1.08 0.72 0.57 0.26 0.23 0.25 0.29 0.36 0.37 0.39 0.46 0.29 0.26 0.27 0.21 0.15 0.09 0.06 0.07 0.12 0.12 0.14 0.17 0.22 0.27 0.25 0.22 0.24 0.30 0.30 0.29 0.23 0.25 0.26 0.26 0.25 0.26 0.23 0.20 0.19 0.19 0.18 0.20 0.24
0.07 0.17 0.29 0.43 0.47 0.52 0.45 0.31 0.19 0.17 0.21 0.28 0.32 0.32 0.43 0.38 0.25 0.32 0.35 0.34 0.18 0.11 0.08 0.11 0.14 0.13 0.14 0.15 0.18 0.23 0.26 0.22 0.23 0.26 0.28 0.29 0.27 0.31 0.29 0.23 0.23 0.25 0.24 0.22 0.20 0.19 0.19 0.20 0.25
0.08 0.22 0.32 0.34 0.29 0.38 0.38 0.29 0.22 0.15 0.15 0.28 0.38 0.50 0.54 0.39 0.28 0.41 0.43 0.43 0.26 0.15 0.10 0.12 0.17 0.15 0.14 0.14 0.16 0.19 0.23 0.25 0.28 0.28 0.27 0.26 0.25 0.28 0.29 0.23 0.20 0.21 0.21 0.20 0.21 0.21 0.23 0.25 0.29
0.10 0.22 0.23 0.21 0.22 0.29 0.28 0.21 0.19 0.18 0.22 0.27 0.39 0.62 0.68 0.53 0.38 0.40 0.48 0.41 0.35 0.26 0.17 0.18 0.23 0.19 0.18 0.17 0.17 0.19 0.20 0.22 0.22 0.24 0.24 0.22 0.22 0.27 0.33 0.30 0.23 0.20 0.18 0.18 0.20 0.21 0.25 0.29 0.33
0.09 0.15 0.12 0.11 0.15 0.22 0.23 0.17 0.17 0.14 0.18 0.28 0.35 0.67 0.85 0.88 0.64 0.52 0.60 0.63 0.61 0.43 0.27 0.25 0.25 0.23 0.25 0.29 0.25 0.24 0.24 0.25 0.26 0.27 0.27 0.26 0.25 0.25 0.29 0.35 0.31 0.24 0.26 0.26 0.25 0.23 0.26 0.30 0.35
0.03 0.05 0.06 0.07 0.08 0.15 0.19 0.17 0.15 0.16 0.18 0.25 0.33 0.53 0.85 0.79 0.55 0.61 0.91 0.95 1.03 0.82 0.57 0.41 0.33 0.32 0.28 0.26 0.30 0.31 0.30 0.30 0.30 0.29 0.28 0.29 0.30 0.30 0.32 0.33 0.36 0.35 0.40 0.40 0.35 0.34 0.34 0.34 0.36
0.02 0.03 0.04 0.03 0.04 0.08 0.10 0.13 0.13 0.13 0.16 0.31 0.42 0.55 0.70 0.60 0.54 0.66 1.18 1.22 1.19 1.00 0.78 0.64 0.50 0.42 0.36 0.30 0.32 0.40 0.41 0.40 0.39 0.43 0.41 0.43 0.51 0.52 0.59 0.54 0.61 0.61 0.61 0.64 0.60 0.60 0.60 0.56 0.49
0.02 0.01 0.01 0.01 0.02 0.04 0.08 0.13 0.13 0.15 0.28 0.65 0.87 0.85 0.81 0.70 0.77 0.95 1.26 1.12 1.16 1.17 0.99 0.85 0.69 0.54 0.47 0.45 0.56 0.71 0.62 0.63 0.65 0.77 0.78 0.90 1.08 1.05 0.72 0.76 1.03 1.13 1.19 1.16 1.12 1.12 0.94 0.81 0.75
0.02 0.02 0.01 0.01 0.01 0.02 0.05 0.10 0.13 0.17 0.52 0.96 1.22 1.03 0.93 0.99 1.05 1.28 1.58 1.59 1.47 1.55 1.33 1.11 0.94 0.79 0.70 0.81 0.74 0.83 0.96 1.04 1.06 1.11 1.12 1.25 1.21 1.03 0.86 0.97 1.24 1.50 1.57 1.45 1.64 1.69 1.32 1.38 1.62
0.02 0.02 0.01 0.00 0.01 0.02 0.04 0.07 0.13 0.24 0.48 0.68 0.83 0.98 1.08 1.22 1.47 1.66 1.70 1.86 1.80 1.76 1.64 1.59 1.36 1.19 1.25 1.19 0.92 0.88 0.92 1.01 1.15 1.39 1.36 1.43 1.59 1.50 1.42 1.45 1.49 1.65 1.85 2.07 2.06 2.21 2.07 2.00 1.91
0.01 0.02 0.01 0.00 0.01 0.02 0.04 0.06 0.16 0.32 0.42 0.52 0.84 1.18 1.41 1.43 1.72 1.97 2.02 2.26 2.08 1.95 1.89 1.87 1.82 1.65 1.71 1.51 1.31 1.16 1.25 1.26 1.31 1.43 1.55 1.52 1.73 1.88 1.87 1.80 1.76 1.70 1.80 1.97 2.14 2.20 2.54 2.64 2.30
0.00 0.01 0.01 0.01 0.02 0.03 0.07 0.11 0.21 0.36 0.52 0.69 0.92 1.19 1.49 1.73 1.93 2.01 2.32 2.54 2.52 2.35 2.35 2.17 2.10 2.10 2.07 1.96 1.91 1.84 1.63 1.63 1.59 1.55 1.55 1.59 1.79 1.99 2.09 1.98 1.94 1.82 1.79 1.96 2.14 2.32 2.76 2.77 2.60
0.00 0.01 0.03 0.03 0.04 0.07 0.09 0.24 0.38 0.51 0.60 0.73 0.93 1.09 1.42 1.91 2.18 2.18 2.38 2.52 2.49 2.78 2.79 2.77 2.71 2.84 2.76 2.57 2.43 2.25 2.08 1.90 1.86 1.90 1.91 1.82 1.84 1.98 1.98 1.82 1.75 1.80 1.96 2.11 2.15 2.31 2.59 2.33 2.32
0.02 0.08 0.10 0.11 0.09 0.09 0.14 0.42 0.53 0.62 0.63 0.83 1.02 1.18 1.48 1.76 2.09 2.23 2.45 2.63 2.72 3.03 3.15 3.28 3.32 3.29 3.14 3.07 2.97 2.74 2.53 2.35 2.16 2.08 2.12 1.97 1.89 1.89 2.01 1.82 1.70 2.00 2.09 2.17 2.35 2.46 2.47 2.42 2.41
0.04 0.06 0.08 0.11 0.09 0.08 0.14 0.36 0.47 0.62 0.84 1.03 1.20 1.30 1.40 1.66 1.97 2.32 2.59 2.92 3.22 3.51 3.72 3.86 3.87 3.72 3.45 3.44 3.40 3.24 3.04 2.69 2.33 2.15 2.06 1.94 1.89 1.95 2.18 2.13 2.17 2.32 2.37 2.36 2.25 2.50 2.49 2.40 2.38
0.03 0.05 0.07 0.10 0.09 0.09 0.19 0.41 0.47 0.65 0.90 1.00 1.27 1.41 1.50 1.58 2.02 2.44 2.63 3.07 3.56 4.03 4.39 4.19 4.06 4.19 4.05 3.88 3.70 3.38 2.95 2.55 2.38 2.29 2.08 1.98 1.98 2.06 2.37 2.21 2.16 2.29 2.40 2.40 2.35 2.33 2.35 2.15 2.12
0.03 0.06 0.09 0.12 0.10 0.12 0.23 0.49 0.70 0.82 1.08 1.09 1.13 1.28 1.42 1.55 1.84 2.22 2.51 3.09 3.71 4.07 4.44 4.56 4.50 4.35 4.12 3.69 3.34 3.08 2.85 2.67 2.42 2.24 2.15 2.03 1.93 2.01 2.29 2.18 2.25 2.22 2.21 2.21 2.25 2.28 2.13 1.80 1.98
0.04 0.07 0.09 0.14 0.13 0.17 0.33 0.54 0.80 0.83 0.92 0.99 0.92 0.97 1.16 1.52 1.76 2.25 2.49 2.71 3.21 3.73 4.16 4.42 4.54 4.39 4.00 3.55 3.27 3.07 3.00 2.66 2.37 2.32 2.30 2.12 2.12 2.11 2.12 2.17 2.12 2.13 2.19 2.10 2.07 2.14 1.95 1.62 1.73
0.06 0.07 0.09 0.10 0.12 0.24 0.35 0.73 0.98 0.87 0.85 0.89 0.91 0.98 1.15 1.60 2.04 2.27 2.41 2.55 2.81 3.24 3.54 3.64 3.78 3.73 3.52 3.49 3.40 3.20 3.13 2.75 2.57 2.54 2.51 2.34 2.32 2.24 2.21 2.15 2.03 1.91 1.81 1.76 1.80 1.86 1.83 1.66 1.58
0.08 0.06 0.05 0.07 0.14 0.34 0.38 0.83 1.26 1.09 0.94 1.00 1.09 1.06 1.33 1.66 1.69 1.78 2.06 2.37 2.58 2.80 3.11 3.35 3.39 3.32 3.19 3.23 3.15 2.93 2.69 2.53 2.58 2.77 2.73 2.49 2.27 2.07 1.84 1.70 1.71 1.68 1.61 1.56 1.41 1.46 1.53 1.46 1.35
0.06 0.05 0.06 0.09 0.16 0.32 0.40 0.61 1.10 1.13 1.17 1.08 1.11 1.24 1.45 1.44 1.42 1.51 1.70 2.00 2.12 2.40 2.66 2.93 3.20 3.25 3.15 3.12 3.00 2.95 2.75 2.67 2.67 2.59 2.47 2.24 2.01 1.74 1.48 1.37 1.40 1.39 1.36 1.28 1.22 1.24 1.17 1.14 1.13
0.05 0.06 0.12 0.18 0.31 0.65 0.52 0.52 0.94 1.11 1.01 0.92 0.99 1.04 1.23 1.24 1.25 1.43 1.59 1.79 1.89 2.02 2.14 2.27 2.50 2.74 2.82 2.82 2.75 2.67 2.54 2.45 2.36 2.16 1.95 1.75 1.60 1.38 1.16 1.07 1.13 1.20 1.24 1.18 1.13 1.14 1.07 1.08 1.18
0.06 0.09 0.39 0.74 0.98 1.03 0.56 0.60 1.04 0.90 0.72 0.74 0.89 0.91 0.87 0.91 0.97 1.19 1.31 1.39 1.51 1.60 1.64 1.77 1.99 2.28 2.34 2.30 2.28 2.30 2.24 2.17 2.04 1.95 1.77 1.56 1.36 1.11 1.05 1.04 1.07 1.11 1.17 1.08 1.06 1.04 1.08 1.16 1.24
0.08 0.09 0.34 0.62 0.75 0.82 0.67 1.01 1.45 0.97 0.75 0.79 0.82 0.79 0.75 0.75 0.74 0.88 1.07 1.27 1.33 1.34 1.40 1.50 1.75 1.94 1.98 1.87 1.94 2.03 2.00 2.00 1.88 1.90 1.69 1.42 1.24 1.16 1.20 1.15 1.07 1.01 1.04 0.98 1.08 1.02 1.02 1.13 1.19
0.09 0.08 0.14 0.28 0.37 0.59 0.83 1.13 1.17 0.72 0.63 0.72 0.74 0.72 0.76 0.75 0.71 0.76 0.83 0.98 1.03 1.05 1.11 1.23 1.55 1.76 1.81 1.78 1.83 1.90 1.92 1.84 1.70 1.60 1.48 1.28 1.26 1.22 1.33 1.28 1.21 1.13 1.12 1.15 1.24 1.23 1.25 1.37 1.37
0.10 0.11 0.16 0.22 0.35 0.57 0.79 1.09 1.24 0.86 0.70 0.52 0.47 0.50 0.47 0.48 0.51 0.55 0.55 0.61 0.73 0.88 1.06 1.18 1.26 1.47 1.64 1.65 1.64 1.64 1.74 1.66 1.54 1.47 1.31 1.13 1.06 1.09 1.23 1.28 1.24 1.18 1.17 1.25 1.35 1.40 1.53 1.63 1.63
0.13 0.11 0.13 0.17 0.20 0.38 0.79 1.02 0.82 0.68 0.57 0.53 0.47 0.50 0.44 0.38 0.39 0.44 0.49 0.54 0.67 0.79 0.95 1.11 1.15 1.27 1.39 1.44 1.51 1.49 1.45 1.47 1.43 1.30 1.14 1.08 1.06 1.02 1.03 1.12 1.19 1.17 1.20 1.25 1.31 1.35 1.56 1.65 1.63
0.14 0.11 0.13 0.17 0.17 0.24 0.43 0.64 0.51 0.57 0.57 0.50 0.49 0.55 0.58 0.52 0.46 0.48 0.55 0.60 0.70 0.79 0.84 0.90 0.96 1.07 1.21 1.35 1.51 1.56 1.50 1.47 1.39 1.20 1.08 1.06 1.05 1.04 1.05 1.13 1.17 1.08 1.06 1.17 1.24 1.29 1.42 1.50 1.48